Weather History for Point Salines, Grenada

Change the Weather History Date:

Monday, September 23, 2013

  Actual Average Record
Temperature  
Mean Temperature 84 °F -  
Max Temperature 88 °F 85 °F 89 °F (1998)
Min Temperature 80 °F 76 °F 75 °F (2010)
Cooling Degree Days 19    
Growing Degree Days 34 (Base 50)    
Moisture  
Dew Point 77 °F    
Average Humidity 75    
Maximum Humidity 89    
Minimum Humidity 66    
Precipitation  
Precipitation 0.00 in - - ()
Sea Level Pressure  
Sea Level Pressure 29.96 in    
Wind  
Wind Speed 14 mph ()    
Max Wind Speed 20 mph    
Max Gust Speed -    
Visibility 8.0 miles    
Events Rain    
Averages and records for this station are not official NWS values.
T = Trace of Precipitation, MM = Missing Value Source: Averaged Metar Reports

Daily Weather History Graph

Daily Weather History Graph

Search for Another Location

Airport:

Trip Planner

Search our weather history database for the weather conditions in past years. The results will help you decide how hot, cold, wet, or windy it might be!

Date:

Astronomy

Sep. 23, 2013 Rise Set
Actual Time 5:56 AM AST 6:02 PM AST
Civil Twilight 5:35 AM AST 6:23 PM AST
Nautical Twilight 5:10 AM AST 6:48 PM AST
Astronomical Twilight 4:46 AM AST 7:12 PM AST
Moon 9:19 PM AST (9/23) 9:24 AM AST (9/23)
Length of Visible Light 12h 48m
Length of Day
12h 06m
Waning Gibbous, 81% of the Moon is Illuminated
Sep 23
Waning Gibbous
Sep 26
Last Quarter
Oct 4
New
Oct 11
First Quarter
Oct 18
Full

Hourly Weather History & Observations

Time (AST) Temp. Heat Index Dew Point Humidity Pressure Visibility Wind Dir Wind Speed Gust Speed Precip Events Conditions
12:00 AM 84.2 °F 94.1 °F 77.0 °F 79% 29.95 in 6.2 mi ESE 16.1 mph - N/A   Scattered Clouds
1:00 AM 84.2 °F 94.1 °F 77.0 °F 79% 29.95 in 6.2 mi ESE 15.0 mph - N/A   Scattered Clouds
2:00 AM 83 °F - 76 °F 74% 29.95 in 14 mi SE 16.1 mph - -   Widespread Dust
2:00 AM 84.2 °F 94.1 °F 77.0 °F 79% 29.95 in 6.2 mi SE 16.1 mph - N/A   Scattered Clouds
3:00 AM 82.4 °F 89.5 °F 75.2 °F 79% 29.92 in 6.2 mi ESE 16.1 mph - N/A   Scattered Clouds
4:00 AM 82.4 °F 89.5 °F 75.2 °F 79% 29.92 in 6.2 mi ESE 13.8 mph - N/A   Scattered Clouds
5:00 AM 83 °F - 76 °F 73% 29.95 in 14 mi ESE 16.1 mph - -   Widespread Dust
5:00 AM 82.4 °F 89.5 °F 75.2 °F 79% 29.95 in 6.2 mi ESE 16.1 mph - N/A   Scattered Clouds
6:00 AM 84.2 °F 92.3 °F 75.2 °F 74% 29.95 in 6.2 mi ESE 16.1 mph - N/A   Scattered Clouds
7:00 AM 84.2 °F 94.1 °F 77.0 °F 79% 29.98 in 6.2 mi ESE 9.2 mph - N/A   Partly Cloudy
8:00 AM 86 °F - 77 °F 69% 30.01 in 11 mi SE 16.1 mph - -   Widespread Dust
8:00 AM 86.0 °F 96.9 °F 77.0 °F 74% 30.01 in 6.2 mi SE 16.1 mph - N/A   Scattered Clouds
9:00 AM 86.0 °F 96.9 °F 77.0 °F 74% 30.01 in 6.2 mi ESE 16.1 mph - N/A   Scattered Clouds
10:00 AM 87.8 °F 99.7 °F 77.0 °F 70% 30.04 in 6.2 mi ESE 17.3 mph - N/A   Scattered Clouds
11:00 AM 88 °F - 78 °F 66% 30.03 in 14 mi ESE 16.1 mph - -   Widespread Dust
11:00 AM 87.8 °F 102.5 °F 78.8 °F 75% 30.01 in 6.2 mi ESE 16.1 mph - N/A   Scattered Clouds
12:00 PM 87.8 °F 102.5 °F 78.8 °F 75% 30.01 in 6.2 mi SE 13.8 mph - N/A   Scattered Clouds
1:00 PM 87.8 °F 102.5 °F 78.8 °F 75% 29.98 in 6.2 mi SE 17.3 mph - N/A   Scattered Clouds
2:00 PM 88 °F - 78 °F 66% 29.95 in 14 mi SE 17.3 mph - -   Widespread Dust
2:00 PM 87.8 °F 102.5 °F 78.8 °F 75% 29.95 in 6.2 mi SE 17.3 mph - N/A   Partly Cloudy
3:00 PM 87.8 °F 99.7 °F 77.0 °F 70% 29.92 in 6.2 mi SE 19.6 mph - N/A   Partly Cloudy
4:00 PM 87.8 °F 102.5 °F 78.8 °F 75% 29.92 in 6.2 mi SE 19.6 mph - N/A   Partly Cloudy
5:00 PM 86 °F - 77 °F 67% 29.93 in 15 mi ESE 17.3 mph - -   Scattered Clouds
5:00 PM 86.0 °F 96.9 °F 77.0 °F 74% 29.92 in 6.2 mi ESE 17.3 mph - N/A   Partly Cloudy
6:00 PM 84.2 °F 94.1 °F 77.0 °F 79% 29.92 in 6.2 mi ESE 12.7 mph - N/A   Partly Cloudy
7:00 PM 84.2 °F 94.1 °F 77.0 °F 79% 29.92 in 6.2 mi SE 13.8 mph - N/A   Partly Cloudy
8:00 PM 84 °F - 77 °F 74% 29.96 in 15 mi ESE 18.4 mph - -   Widespread Dust
8:00 PM 84.2 °F 94.1 °F 77.0 °F 79% 29.95 in 6.2 mi ESE 18.4 mph - N/A   Partly Cloudy
9:00 PM 84.2 °F 94.1 °F 77.0 °F 79% 29.98 in 5.0 mi ESE 15.0 mph - N/A Rain Rain Showers
10:00 PM 80.6 °F 87.1 °F 77.0 °F 89% 29.98 in 6.2 mi ESE 18.4 mph - N/A   Partly Cloudy
11:00 PM 82 °F - 76 °F 76% 29.99 in 11 mi East 8.1 mph - - Rain Light Rain Showers
11:00 PM 82.4 °F 89.5 °F 75.2 °F 79% 29.98 in 6.2 mi East 8.1 mph - N/A   Partly Cloudy